Flag for Germany Weather past 2 weeks in Schwedt/Oder, Brandenburg, Germany

Now
73 °F

Passing clouds.


Feels Like: 76 °F
Forecast: 62 / 85 °F
Wind: 8 mph from Southeast

Location: Szczecin Airport

Current Time: Jul 25, 2014 at 6:33:05 PM

Latest Report: Jul 25, 2014 at 6:00 PM


Visibility: N/A

Pressure: 29.98 "Hg

Humidity: 69%

Dew point: 63 °F

Location of Schwedt/OderLocation

Historic Weather in Schwedt/Oder — Graph

°F

Schwedt/Oder temperature yesterday

Maximum temperature yesterday: 79 °F (at 12:00 PM)
Minimum temperature yesterday: 61 °F (at 2:00 AM)
Average temperature yesterday: 69 °F

Past Weeks' High & Low Weather Summary

 TemperatureHumidityPressure
High88 °F (Jul 20, 4:00 PM)100% (Jul 13, 4:30 AM)30.18 "Hg (Jul 13, 4:30 AM)
Low54 °F (Jul 12, 4:30 AM)31% (Jul 10, 5:00 PM)29.71 "Hg (Jul 13, 1:00 PM)
Average69 °F69%29.98 "Hg
* Reported Jul 10 5:00 PM — Jul 25 5:00 PM, Schwedt/Oder, Weather by CustomWeather, © 2014

Note: Actual official high and low records may vary slightly from our data, if they occured in-between our weather recording intervals... More about our weather records

Advertising

Schwedt/Oder weather history for previous 24 hours

 ConditionsComfort  
Time TempWeatherWind HumidityBarometerVisibility
5:00 PM
Jul 25
72 °FSunny.5 mph73%29.98 "Hg10 mi
4:30 PM73 °FSprinkles. Scattered clouds.8 mph65%29.98 "HgN/A
4:00 PM75 °FPassing clouds.13 mph57%29.98 "HgN/A
3:30 PM73 °FSunny.8 mph61%29.98 "Hg10 mi
3:00 PM75 °FPassing clouds.10 mph54%29.98 "HgN/A
2:30 PM77 °FPassing clouds.13 mph44%30.01 "HgN/A
2:00 PM79 °FPassing clouds.6 mph45%29.98 "HgN/A
1:30 PM75 °FSunny.5 mph54%29.98 "Hg10 mi
1:00 PM75 °FPassing clouds.5 mph50%30.01 "HgN/A
12:30 PM75 °FPassing clouds.7 mph50%30.01 "HgN/A
12:00 PM77 °FPassing clouds.6 mph47%30.01 "HgN/A
11:30 AM75 °FPassing clouds.6 mph54%30.01 "HgN/A
11:00 AM77 °FSunny.9 mph44%30.01 "Hg10 mi
10:30 AM79 °FPassing clouds.8 mph45%30.01 "HgN/A
10:00 AM77 °FPassing clouds.7 mph51%30.01 "HgN/A
9:30 AM73 °FPassing clouds.6 mph53%30.01 "HgN/A
9:00 AM72 °FPassing clouds.7 mph61%30.01 "HgN/A
8:30 AM70 °FSunny.7 mph64%30.01 "Hg10 mi
8:00 AM66 °FSunny.6 mph73%30.01 "Hg10 mi
7:30 AM66 °FSunny.7 mph73%30.01 "Hg10 mi
7:00 AM64 °FSunny.6 mph73%30.01 "Hg10 mi
6:30 AM64 °FSunny.6 mph73%30.01 "Hg10 mi
6:00 AM64 °FClear.6 mph73%30.01 "Hg10 mi
5:30 AM63 °FClear.5 mph77%30.01 "Hg10 mi
5:00 AM63 °FPassing clouds.5 mph77%30.01 "HgN/A
4:30 AM66 °FClear.7 mph68%29.98 "Hg10 mi
4:00 AM66 °FClear.7 mph68%29.98 "Hg10 mi
3:30 AM66 °FClear.7 mph68%29.98 "Hg10 mi
3:00 AM66 °FClear.6 mph68%30.01 "Hg10 mi
2:30 AM68 °FClear.7 mph64%30.01 "Hg10 mi
2:00 AM68 °FClear.6 mph64%30.01 "Hg10 mi
1:30 AM68 °FClear.6 mph64%30.01 "Hg10 mi
1:00 AM68 °FClear.6 mph64%30.01 "Hg10 mi
12:30 AM68 °FClear.7 mph64%30.01 "Hg10 mi
12:00 AM68 °FLight rain. Clear.7 mph69%30.01 "HgN/A
11:30 PM
Jul 24
68 °FClear.6 mph73%30.01 "Hg10 mi
11:00 PM66 °FClear.5 mph83%30.01 "Hg10 mi
10:30 PM66 °FClear.2 mph88%30.01 "Hg10 mi
10:00 PM66 °FSunny.2 mph88%30.01 "Hg10 mi
9:30 PM68 °FSunny.3 mph83%30.01 "Hg10 mi
9:00 PM68 °FSunny.No wind78%30.01 "Hg10 mi
8:30 PM68 °FSunny.2 mph78%30.01 "Hg10 mi
8:00 PM70 °FSunny.3 mph73%30.01 "Hg10 mi
7:30 PM70 °FSunny.5 mph73%30.01 "Hg10 mi
7:00 PM70 °FSunny.7 mph73%30.01 "Hg10 mi
6:30 PM70 °FSunny.7 mph73%30.01 "Hg10 mi
6:00 PM70 °FSunny.8 mph73%30.01 "Hg10 mi
Weather by CustomWeather, © 2014

See weather overviewHow to use our weather pages